Theta_e
340 340 339 337 335 335 334 334 335 334 335 338 339 339 339 339 340 340 340 340 340 340 341 340 339 337 336 336 336 335 336 335 331 328 329 330 326 321 318 319 321 322 325 328 330 330 330 332 334 334 333 333 332 332 332 331 331 330 331 330 331 332
340 339 337 335 334 334 334 334 335 335 336 338 339 340 340 340 340 340 340 339 339 340 339 339 336 334 334 335 335 334 335 336 334 331 328 328 329 327 323 320 320 322 325 327 329 330 330 331 333 334 334 333 332 333 332 331 331 330 331 331 332 331
339 338 335 334 334 334 334 333 333 335 336 337 338 339 339 339 339 340 339 339 339 338 337 336 334 334 336 334 334 334 335 336 335 333 330 328 328 329 328 324 321 321 323 325 327 329 329 330 333 334 334 334 333 332 332 331 331 331 331 332 332 330
338 336 334 333 333 334 333 332 333 334 335 336 337 337 338 338 338 338 337 337 337 337 336 335 333 334 336 334 335 337 336 336 336 334 331 330 328 328 329 328 325 322 322 323 324 326 327 329 332 333 334 334 334 333 332 332 332 332 332 332 332 330
338 335 334 333 333 333 333 332 332 333 334 335 336 336 337 336 336 335 335 336 334 334 334 333 333 335 336 335 337 339 338 338 338 337 335 334 332 329 328 329 329 327 325 323 323 323 325 328 331 333 333 333 334 333 333 333 333 333 332 332 332 330
336 334 334 333 333 333 333 333 333 334 335 334 336 336 335 334 335 334 334 335 334 333 332 333 336 337 337 337 338 338 338 338 338 338 338 337 336 333 331 329 328 329 328 327 325 324 323 326 331 332 332 332 333 333 334 333 333 333 333 333 332 331
335 333 334 333 333 333 333 334 334 334 335 334 335 336 335 333 334 333 332 333 334 333 334 336 337 336 337 338 338 338 338 338 338 338 338 338 339 337 336 332 329 328 328 329 328 327 326 326 329 332 332 331 331 332 334 334 334 334 334 333 333 332
334 333 333 334 334 334 333 333 333 333 334 333 334 335 334 332 334 334 333 335 334 334 335 336 336 337 338 339 339 339 338 338 338 339 339 339 339 339 339 337 333 330 328 328 328 329 330 329 329 330 332 331 330 331 332 333 334 334 334 334 333 333
334 334 334 334 334 334 334 334 334 333 333 334 334 334 334 333 336 337 337 338 336 336 337 338 338 339 339 339 339 339 339 339 338 338 339 339 339 339 339 339 337 336 333 330 328 328 329 331 330 330 331 332 331 331 331 332 333 333 333 334 334 333
333 334 334 333 333 334 333 334 334 334 334 334 335 335 335 335 337 338 338 339 338 338 338 339 339 339 339 340 339 339 339 339 339 338 338 339 339 338 338 338 338 338 337 335 333 331 329 332 333 332 331 332 332 332 332 332 333 333 333 334 334 334
334 334 332 332 333 334 333 334 334 334 334 334 335 335 335 335 336 337 338 338 338 339 339 339 340 339 339 339 339 339 338 338 338 338 338 338 338 338 338 338 337 337 337 337 337 335 332 332 333 334 333 332 332 333 333 332 331 333 333 334 334 334
335 335 334 332 332 333 334 334 334 333 335 334 334 334 334 335 335 336 338 338 339 339 339 339 339 339 339 339 338 338 337 337 337 337 337 337 336 337 337 337 337 337 337 337 337 337 336 335 335 335 334 333 332 332 333 333 331 332 333 333 334 333
337 337 337 334 332 332 333 333 332 333 335 335 335 335 335 336 337 338 338 338 339 339 339 339 339 339 338 338 337 337 337 337 337 336 336 336 335 336 336 336 336 336 336 336 336 337 337 337 336 336 335 334 333 332 333 333 332 331 332 333 333 333
338 338 338 336 333 332 334 334 335 336 337 337 338 338 338 339 339 339 339 339 339 339 339 339 338 338 337 337 337 336 336 336 336 335 335 335 335 335 336 336 335 335 335 336 336 336 337 337 337 337 336 335 334 333 332 333 332 332 332 333 333 332
338 339 339 339 335 333 336 337 338 339 339 339 340 340 340 340 339 339 340 340 339 339 339 338 338 337 337 336 336 336 335 335 335 335 335 335 335 335 335 335 335 335 334 335 336 336 336 336 336 336 336 335 334 334 333 332 333 333 333 333 333 332
339 340 340 340 338 336 337 338 339 338 339 340 341 341 340 339 339 339 339 339 339 338 338 338 337 337 336 336 336 335 335 335 335 335 335 335 334 334 334 335 335 334 334 334 335 335 335 336 336 336 336 336 335 334 334 333 333 332 333 332 332 332
340 340 340 340 339 338 338 339 339 339 340 341 340 340 339 339 339 339 339 339 338 337 337 337 337 337 336 336 336 336 336 335 335 335 335 335 335 334 334 335 334 334 334 334 334 334 335 335 335 335 334 335 335 335 334 333 333 332 332 332 331 331
340 340 340 340 339 340 340 340 340 341 341 340 338 339 339 339 339 339 338 338 338 337 337 337 338 337 337 337 336 336 335 335 335 335 335 335 335 335 335 335 334 334 334 334 334 334 334 334 334 334 333 334 334 334 334 334 333 332 332 332 331 331
340 340 340 340 340 340 340 340 341 341 340 338 339 339 339 338 338 339 338 338 338 337 337 337 337 337 337 336 336 335 335 334 335 335 335 334 334 335 334 334 334 334 334 334 333 333 333 333 332 332 333 333 333 333 333 333 333 333 332 332 332 332
340 340 340 340 340 340 340 340 340 340 340 339 338 338 338 338 338 338 338 338 337 336 336 336 336 336 336 335 335 335 334 334 334 334 334 334 334 334 334 334 334 334 334 334 333 333 332 331 331 332 332 332 332 332 332 332 332 332 332 332 332 332
340 340 341 341 341 340 340 341 340 339 339 339 338 338 338 337 337 337 336 336 335 335 335 334 335 335 335 335 335 335 334 333 333 333 333 333 332 333 333 333 333 333 333 333 334 333 333 332 331 332 331 332 332 331 332 332 331 331 332 332 332 332
341 340 341 341 340 341 340 340 340 339 339 338 337 337 337 337 336 335 335 334 334 333 333 334 334 335 335 335 334 334 333 333 333 332 332 332 332 332 332 332 332 332 333 333 333 333 333 333 332 332 332 332 332 332 332 331 331 331 331 331 331 331
341 341 341 341 340 341 340 340 340 339 337 337 336 336 336 335 334 333 333 332 332 333 333 333 333 333 332 332 333 333 333 332 332 332 332 331 331 331 331 331 331 332 332 333 332 332 332 333 333 332 332 332 332 331 332 332 332 331 331 331 331 331
342 341 341 341 340 341 340 339 339 337 336 336 336 336 335 333 333 332 332 332 332 331 331 331 331 331 331 331 331 330 330 330 330 330 331 330 330 331 331 331 331 331 332 333 333 333 333 333 333 332 332 332 332 331 331 332 332 332 331 331 331 331
341 342 341 341 341 340 340 339 338 336 335 336 336 335 335 333 332 332 331 331 330 330 330 330 330 330 330 330 330 329 329 329 329 329 329 329 329 329 329 330 330 329 330 331 332 332 333 333 333 332 332 332 333 332 332 332 332 332 332 331 331 331
341 341 340 340 340 339 338 337 337 337 337 338 337 335 335 333 331 330 330 330 330 329 329 329 329 329 328 328 328 328 328 328 328 328 328 328 328 328 328 329 329 329 328 329 330 330 331 332 333 333 332 333 332 331 332 332 331 331 332 332 331 331
341 340 340 339 338 337 336 336 337 337 336 337 336 335 333 332 330 330 330 330 330 329 329 328 328 327 327 327 327 327 327 327 327 327 327 327 327 328 328 328 328 328 328 329 329 329 329 330 331 331 332 332 331 328 329 331 331 331 332 332 332 331
339 339 338 338 337 336 337 337 336 335 334 333 333 333 332 331 330 331 331 330 329 328 328 327 327 326 326 327 327 327 327 327 327 327 327 326 327 327 327 327 327 327 328 328 328 329 329 329 330 330 330 331 330 327 327 330 331 331 331 331 331 331
338 338 337 337 337 336 336 335 334 333 332 332 331 331 331 331 331 331 330 329 328 327 327 327 326 326 326 327 327 327 327 327 327 327 327 327 327 327 327 327 327 327 327 327 328 329 330 330 330 330 330 330 330 328 327 328 329 329 329 330 330 331
337 337 336 336 336 335 334 333 332 332 331 330 330 330 331 331 330 330 329 328 327 327 327 326 326 326 326 326 326 327 327 327 326 326 327 327 328 327 328 328 328 328 327 326 327 328 329 329 329 330 330 330 329 330 328 328 328 328 329 330 330 330
335 335 334 334 334 333 332 332 331 329 329 329 330 330 330 329 329 328 328 327 326 326 326 326 326 326 325 325 326 326 326 326 326 327 327 327 327 327 328 328 327 327 327 327 327 327 328 329 329 329 329 329 329 329 329 329 328 327 328 329 329 330
332 332 332 332 331 331 330 329 329 329 329 329 329 329 328 327 327 327 326 326 325 325 325 325 325 325 324 324 324 325 325 326 326 326 326 327 327 327 327 327 327 327 327 327 328 327 328 328 328 328 328 328 328 328 329 330 329 328 328 328 329 330
329 329 329 329 328 328 327 327 328 328 329 328 328 327 327 326 326 325 325 325 325 324 324 324 324 323 323 323 323 324 324 325 325 324 324 325 326 326 327 327 327 327 327 327 327 327 327 327 327 328 328 328 328 328 328 329 329 329 329 329 329 330
327 326 326 326 327 327 327 327 327 328 328 327 326 326 325 325 325 324 324 323 323 323 323 323 323 322 322 322 323 323 323 324 324 324 324 324 324 325 326 326 326 327 327 327 327 326 326 327 327 327 328 329 329 328 329 329 329 329 329 329 329 330
325 325 325 325 326 326 326 327 327 327 327 326 325 324 324 324 324 323 322 322 322 322 322 322 321 321 321 322 322 322 322 323 324 324 324 324 324 325 326 326 326 326 327 327 327 326 326 327 327 327 327 327 327 328 328 328 328 329 329 329 329 330
324 324 325 325 326 326 326 326 326 325 325 324 324 324 323 323 323 322 321 320 321 321 321 321 321 321 322 322 322 322 322 323 324 324 324 323 324 324 325 326 325 325 326 326 326 326 325 326 326 326 326 326 327 328 328 328 328 328 328 329 329 330
324 324 325 325 325 324 324 324 324 323 323 323 323 323 322 321 321 320 319 319 320 321 321 320 320 321 321 322 322 322 322 323 323 324 323 323 323 323 324 325 325 325 325 326 326 326 325 326 326 326 326 326 327 328 327 327 328 328 328 329 329 329
Wind_Speed
11 10 11 11 12 12 12 14 12 13 15 14 13 13 11 10 9 7 7 7 6 5 4 3 2 1 1 3 4 4 4 5 5 5 5 6 5 4 4 5 6 6 6 6 5 3 1 1 2 2 1 3 5 5 4 3 2 3 3 3 4 4
11 11 11 12 12 12 12 13 12 12 14 13 12 12 11 10 9 8 7 6 5 4 3 2 1 1 2 2 2 3 3 3 3 3 4 4 4 3 2 3 5 6 6 5 5 4 2 1 1 1 1 2 4 6 5 3 3 3 3 3 4 4
11 11 12 12 12 11 12 13 12 12 12 11 11 10 10 9 8 7 6 5 4 4 3 2 0 1 2 2 3 4 4 3 4 3 2 2 2 2 1 2 4 5 6 7 6 6 4 3 2 1 1 3 5 7 6 5 4 4 4 3 4 4
11 11 11 11 11 11 11 11 11 11 11 10 9 10 10 8 6 5 4 4 3 4 4 2 0 2 1 2 3 5 6 5 5 5 3 1 0 1 1 1 3 5 7 8 8 7 5 4 5 3 2 4 6 6 6 6 5 5 5 4 4 4
11 11 11 11 11 10 10 9 9 10 11 10 9 9 9 7 6 5 4 3 3 4 4 1 2 3 3 3 3 4 5 5 5 5 6 4 3 3 3 3 3 4 5 7 7 7 6 5 5 5 4 3 5 5 5 6 6 6 7 6 6 6
11 11 10 10 10 10 9 8 9 10 10 10 9 8 7 6 6 5 4 2 2 2 3 2 2 3 4 4 4 5 5 6 6 6 7 5 5 6 6 5 6 5 5 6 7 7 7 6 5 5 6 5 4 5 5 6 7 7 8 9 8 8
12 12 10 9 9 9 9 8 8 9 9 9 8 7 6 5 4 3 2 1 1 3 3 2 2 4 4 4 4 6 6 7 6 5 7 7 6 6 7 7 7 7 7 6 7 8 8 7 6 6 7 8 7 6 6 7 7 8 9 10 11 10
12 12 11 9 9 8 9 9 9 8 8 8 7 6 5 5 4 3 2 2 2 2 1 1 3 4 5 5 6 7 8 8 8 7 7 7 6 6 6 7 7 7 7 8 8 8 8 8 8 8 8 9 10 9 9 8 8 8 9 11 12 12
12 12 10 9 9 8 9 9 8 8 7 7 6 5 5 5 3 2 2 2 1 1 2 3 4 5 6 6 7 8 8 9 9 9 8 7 7 7 7 7 7 7 7 9 10 10 9 8 9 10 9 10 11 12 11 10 10 10 11 11 13 14
11 11 10 9 8 8 9 9 8 8 7 6 6 5 5 4 2 1 1 1 2 4 4 5 5 6 7 7 9 9 8 8 8 9 9 8 8 9 8 8 9 9 9 10 10 11 11 10 9 9 11 11 12 12 12 12 12 12 12 12 12 15
11 10 9 9 8 8 8 7 7 7 7 6 5 4 3 2 1 0 2 3 5 6 7 7 7 7 8 9 9 9 8 8 8 8 8 8 8 9 9 8 9 9 10 11 12 13 13 12 10 9 11 12 13 13 13 14 15 14 14 13 13 15
11 9 9 8 7 7 7 7 7 7 6 5 4 3 3 1 0 1 3 4 6 8 8 9 9 9 10 10 9 8 9 9 8 8 8 8 9 9 9 8 8 8 9 10 12 14 16 16 14 12 11 12 14 16 15 15 17 16 15 15 14 14
10 9 8 7 7 8 8 8 8 7 6 5 4 3 2 1 1 3 4 6 7 8 8 9 10 10 11 11 10 10 10 10 8 8 9 10 10 8 7 8 8 8 8 9 10 11 13 15 15 14 14 14 15 16 15 15 17 18 17 17 16 15
10 10 8 8 8 9 9 8 8 6 5 4 3 2 1 1 3 4 5 6 7 7 8 8 9 9 10 10 10 10 10 10 10 10 11 11 12 9 7 8 8 9 8 9 10 10 11 12 13 13 13 16 17 16 17 16 16 18 17 17 16 16
10 10 9 8 8 8 8 6 6 5 4 3 2 1 1 2 4 4 5 6 6 6 7 7 7 8 9 10 10 10 10 10 11 11 11 11 12 11 9 8 9 11 10 9 10 10 11 12 13 12 12 14 16 17 18 19 18 17 16 16 16 16
10 9 9 9 8 8 7 5 5 4 4 4 3 2 2 2 3 4 5 6 6 6 6 6 6 7 9 10 11 10 9 10 11 11 10 10 11 11 9 8 8 10 11 11 11 12 12 12 13 13 12 13 13 14 15 18 20 18 17 16 16 16
10 9 9 8 8 7 6 5 4 4 5 4 3 2 1 3 3 3 4 5 5 4 4 5 6 8 9 9 10 9 9 10 10 10 9 8 9 8 8 8 9 9 10 11 12 13 13 12 12 12 13 13 14 13 13 16 19 19 18 17 17 17
9 9 8 7 7 6 5 5 5 5 4 2 1 1 1 2 2 3 3 3 3 3 3 5 6 7 7 8 9 9 9 8 7 7 7 7 8 8 8 9 10 10 10 11 12 12 12 12 12 13 14 15 14 14 13 15 16 17 16 17 19 19
9 9 8 7 7 6 5 5 6 5 3 1 1 0 1 1 2 2 3 3 3 3 4 5 5 6 6 6 6 6 7 7 6 6 6 7 8 8 9 10 11 12 11 12 13 13 13 13 13 14 14 15 15 14 13 13 14 15 15 16 18 19
9 9 8 8 7 6 6 5 5 4 2 2 2 2 2 2 3 3 3 3 3 3 3 4 4 4 4 4 4 5 5 6 5 6 7 8 8 9 10 10 11 13 13 14 15 14 14 14 13 13 14 16 16 15 14 12 13 14 14 14 15 16
10 9 9 8 7 6 6 6 5 4 3 3 3 3 2 2 3 4 4 4 3 2 2 2 2 2 2 3 4 4 5 5 6 6 7 8 9 10 11 12 13 14 14 16 17 16 15 14 13 12 13 15 16 16 14 12 13 14 14 14 14 14
9 9 8 8 7 7 7 6 6 5 5 4 3 3 3 3 4 5 4 4 3 2 2 2 2 2 2 3 3 4 5 5 6 7 8 9 10 11 12 13 13 14 15 16 18 17 16 14 12 11 11 11 12 14 13 13 15 15 14 14 14 14
9 9 9 10 9 8 8 6 6 5 6 5 4 5 6 5 5 5 5 4 4 3 3 3 2 3 3 4 4 5 5 5 6 7 8 9 10 11 12 13 14 15 15 16 17 17 17 16 15 13 10 8 7 7 9 10 13 16 15 14 15 15
8 9 10 10 10 9 8 7 6 5 6 7 7 8 7 6 6 6 6 5 5 5 4 4 4 4 4 4 4 5 5 6 7 6 7 9 10 11 12 13 15 15 15 15 16 16 16 17 19 16 8 4 3 4 8 7 9 13 14 15 16 17
8 9 9 9 10 9 8 7 7 6 7 8 8 7 6 6 7 7 7 6 6 6 6 6 5 5 5 5 5 5 5 6 6 6 7 8 10 11 12 13 14 16 16 16 17 17 17 17 19 20 15 9 3 3 6 5 6 8 9 13 15 17
9 9 10 10 10 9 7 7 8 8 7 7 7 5 5 6 7 7 7 6 6 7 7 7 6 6 6 6 6 6 6 6 6 6 7 8 10 11 12 12 13 15 16 16 17 18 19 18 17 20 22 20 15 13 10 4 4 5 6 10 13 15
9 10 10 10 10 9 9 9 9 8 7 7 7 5 4 6 7 6 5 5 6 8 8 8 8 8 8 8 7 7 7 7 7 7 8 9 10 11 12 13 13 15 16 17 17 18 20 19 17 18 20 23 25 24 20 12 7 6 6 8 10 12
11 12 11 10 11 10 10 10 9 9 8 8 8 7 5 5 5 4 4 5 6 7 8 9 9 9 9 9 8 7 7 7 7 8 9 10 11 12 13 14 15 16 17 18 17 17 21 19 17 17 17 18 19 20 23 23 17 11 7 7 8 10
13 13 12 12 12 11 10 9 9 9 9 8 8 6 5 4 3 3 5 6 7 8 8 9 9 9 9 9 9 9 9 9 9 9 11 11 12 13 13 14 15 16 16 18 16 16 19 19 18 17 15 15 13 14 20 23 21 15 11 10 9 9
14 14 14 13 13 12 10 9 9 8 8 7 6 5 4 3 3 4 6 8 9 9 9 10 9 9 10 11 10 11 11 11 11 11 11 12 13 14 14 14 15 16 16 17 17 17 19 20 19 18 15 14 13 13 12 11 14 15 14 12 11 10
17 16 15 14 13 12 10 8 7 7 7 6 5 5 4 5 5 7 9 10 11 11 12 12 11 11 12 12 12 12 12 11 11 12 12 12 14 15 15 15 16 17 16 16 17 18 18 18 19 18 15 13 14 13 10 7 9 13 12 11 10 9
18 16 15 13 12 11 9 7 7 6 6 6 6 6 6 7 8 9 11 12 12 12 13 14 13 12 14 14 13 12 12 11 11 13 13 13 13 14 15 15 15 16 16 16 18 19 18 17 18 19 17 14 14 14 13 11 11 12 13 15 13 8
17 15 13 12 11 9 8 7 7 6 6 6 7 8 8 9 10 10 11 12 11 11 12 13 13 14 15 16 15 14 14 13 14 15 15 14 14 13 14 15 15 15 15 16 17 17 18 17 16 17 16 16 16 15 14 14 14 15 15 16 15 10
16 13 11 10 9 8 7 7 6 6 6 7 9 10 10 10 10 10 10 11 11 11 12 12 13 15 16 15 16 16 15 15 16 16 15 15 15 13 13 14 15 15 14 14 15 16 17 16 15 16 16 15 17 17 17 16 16 16 16 16 15 12
15 12 10 8 7 7 7 6 7 8 8 9 10 10 10 10 10 10 11 11 10 10 11 12 13 15 14 14 15 15 15 15 15 15 15 16 16 14 13 13 14 15 14 13 13 15 17 15 15 16 16 16 17 18 17 17 17 18 19 18 17 15
14 11 9 7 7 7 7 8 9 9 9 9 9 8 9 10 11 11 12 11 9 9 12 12 13 13 13 13 14 14 14 13 13 14 14 16 16 14 12 13 15 16 16 14 13 14 16 15 15 16 16 17 17 17 17 17 16 17 19 20 20 20
12 10 8 7 7 8 8 9 10 9 10 11 11 11 11 12 12 12 12 9 8 10 12 13 13 13 12 12 12 13 13 13 12 13 15 17 17 15 13 13 16 17 17 15 13 14 16 16 17 17 17 18 17 16 18 19 17 15 16 18 19 21
Wind_Direction
148 146 146 141 141 142 144 142 139 144 149 149 148 147 148 149 145 152 158 150 144 137 132 123 97 76 42 44 49 49 53 64 83 91 84 81 91 123 166 183 190 200 194 187 190 186 174 73 58 43 92 169 184 192 194 183 181 171 173 172 157 172
149 147 148 144 142 144 148 148 142 141 147 153 153 149 148 152 153 159 160 153 157 152 146 156 136 41 33 43 44 45 50 32 47 92 98 90 87 98 148 194 210 219 218 211 209 212 221 220 101 65 92 174 198 207 212 206 201 196 194 192 185 195
149 147 150 148 146 151 156 153 146 142 148 156 159 161 161 161 161 162 162 161 171 174 178 199 200 54 26 30 50 55 60 35 18 40 76 107 102 101 129 207 224 233 236 235 230 226 221 218 225 224 140 181 206 216 223 229 226 218 216 215 210 218
148 149 150 148 149 154 157 155 149 146 152 158 163 171 175 175 175 177 180 182 192 203 214 232 89 86 47 35 46 41 41 36 27 28 30 22 271 230 243 253 239 240 244 246 244 239 228 216 222 230 211 191 204 215 224 234 239 233 236 241 236 245
153 152 152 149 152 155 155 155 152 151 156 163 167 169 177 184 190 200 207 213 216 212 213 194 85 63 47 43 33 18 17 15 13 15 16 11 346 317 285 275 274 266 258 257 257 252 238 222 220 227 230 205 195 201 216 230 239 242 248 252 255 263
157 155 153 152 154 152 150 150 149 152 156 164 171 172 178 185 194 204 210 220 211 184 166 132 68 33 26 24 15 4 0 358 357 355 359 4 359 353 336 305 287 280 282 279 278 274 257 237 224 228 236 235 212 203 215 229 241 248 253 257 261 266
158 155 153 152 153 149 148 147 145 149 156 164 171 175 180 182 181 182 175 160 136 137 138 106 20 11 10 7 3 354 349 349 350 344 344 346 347 352 350 338 312 287 283 287 292 293 284 263 241 233 241 250 253 242 237 238 244 252 258 262 261 262
158 157 154 154 154 150 150 145 141 146 156 162 165 165 165 164 158 148 133 114 119 127 114 6 351 353 351 349 344 341 341 340 340 336 333 333 331 332 333 336 330 308 289 281 282 286 290 281 261 248 246 253 262 263 261 256 253 256 262 266 263 260
161 160 158 159 157 155 155 147 143 151 155 154 156 153 154 157 154 139 113 90 90 69 6 348 341 337 337 335 334 336 335 332 332 329 323 318 316 318 315 313 318 315 302 288 278 274 275 279 270 260 254 255 264 269 271 268 265 263 265 270 266 260
166 167 165 164 162 157 157 152 149 156 154 149 153 150 149 157 160 150 73 22 9 1 351 345 336 330 331 328 329 331 329 327 327 323 317 312 308 310 309 306 304 300 298 293 286 279 274 273 268 260 259 261 264 269 272 275 276 272 270 271 268 261
170 170 169 166 163 155 153 153 153 157 155 150 155 150 148 159 165 223 341 350 354 353 347 342 336 332 331 329 328 327 328 331 329 325 316 308 306 307 306 303 299 294 291 287 285 281 276 273 267 258 260 264 266 267 268 275 282 280 276 273 266 258
171 169 167 161 157 151 149 151 152 156 155 149 153 147 148 166 252 311 332 343 349 349 344 341 338 334 330 328 328 327 331 334 332 330 323 316 310 305 302 299 296 294 291 286 283 280 277 274 271 265 261 262 265 267 265 270 279 281 279 275 268 257
171 166 160 152 146 146 144 143 144 148 146 140 141 136 137 159 325 326 333 338 340 342 340 338 333 328 325 323 324 326 329 331 331 327 324 320 314 307 301 298 295 294 292 285 282 281 280 277 274 270 266 264 263 266 264 263 272 276 276 274 270 261
168 163 154 145 141 141 140 138 140 143 141 135 135 139 131 355 346 338 336 337 336 334 332 329 325 321 319 317 318 320 323 324 325 323 322 319 314 311 304 300 298 300 296 286 281 281 282 280 276 273 271 270 268 268 267 265 268 270 270 270 267 260
164 160 151 145 142 141 142 143 144 141 135 124 110 114 60 4 349 342 338 335 328 323 320 319 318 316 315 315 316 318 320 321 322 321 320 319 317 313 308 304 304 305 303 292 286 286 285 283 279 275 271 271 271 271 272 271 270 269 267 265 262 256
161 159 153 149 145 144 146 145 143 132 114 90 68 66 49 356 335 333 330 326 320 316 314 314 314 316 318 319 320 321 322 322 321 319 315 315 315 312 309 306 303 303 301 296 293 292 290 287 283 278 273 272 273 272 272 271 271 270 267 262 256 250
163 163 159 155 151 151 148 142 138 119 100 77 50 44 8 328 326 327 323 320 321 320 318 322 324 323 323 321 321 321 321 321 319 316 311 309 308 307 307 304 300 297 296 295 292 291 289 287 286 283 279 276 275 274 271 270 271 270 265 259 252 245
165 164 162 162 159 155 147 139 126 104 95 85 28 13 334 323 333 335 336 338 337 335 330 328 320 316 316 316 318 319 320 321 317 311 306 304 303 304 304 300 298 294 290 287 285 285 285 285 285 283 281 277 274 272 270 269 268 266 261 255 250 248
165 165 161 161 160 155 145 132 115 102 103 111 111 71 26 19 7 356 6 16 8 352 335 323 313 310 313 315 318 320 323 323 314 307 303 302 302 302 301 299 296 293 288 283 282 283 282 282 282 279 278 276 272 269 267 266 263 260 257 253 252 250
165 163 161 159 159 157 145 129 114 109 113 107 105 90 71 55 32 28 38 40 26 6 345 333 326 322 322 319 320 324 329 327 316 308 303 302 303 300 299 298 294 291 288 283 281 281 282 284 283 279 278 276 274 272 268 263 259 256 254 253 253 250
165 164 163 160 159 160 151 138 128 129 131 123 117 96 73 52 50 55 61 63 56 36 14 5 356 340 327 320 323 326 330 327 322 317 311 308 308 305 301 299 297 294 290 288 286 282 280 280 276 274 278 277 274 273 270 264 259 254 252 252 253 251
163 163 164 161 159 155 146 136 129 133 137 130 119 96 84 81 82 81 80 80 76 63 50 37 23 7 343 330 324 320 320 318 318 321 322 319 314 308 304 300 298 297 295 293 291 287 282 272 261 262 274 278 275 271 265 261 259 254 250 251 250 248
159 159 162 160 153 141 134 134 133 134 131 122 118 113 108 107 102 93 86 81 76 74 69 57 35 12 355 343 330 319 316 316 317 319 318 315 309 303 300 297 294 293 293 292 287 285 282 269 258 260 268 272 276 278 266 254 252 251 249 247 244 242
157 157 158 153 143 136 137 145 143 134 128 119 119 123 117 107 99 92 88 83 78 71 58 41 21 7 359 347 339 332 328 325 322 315 306 304 301 298 297 295 294 291 289 286 282 281 279 272 263 259 257 258 253 267 268 262 259 254 245 243 241 239
156 155 151 144 140 140 142 146 143 137 134 128 123 123 112 98 94 90 86 81 71 55 38 27 18 12 6 356 350 345 340 333 326 318 310 307 305 303 300 297 295 293 288 284 285 286 283 277 267 258 252 249 239 263 268 276 284 262 234 238 242 240
154 148 142 140 141 142 141 143 149 148 144 139 129 116 101 97 94 88 80 72 55 40 27 19 17 14 8 1 357 354 353 345 338 333 328 321 314 310 305 301 297 295 292 288 288 288 284 280 274 264 255 249 244 251 261 270 283 269 236 237 239 239
146 141 138 141 143 143 141 139 147 146 134 127 120 109 102 99 93 81 66 53 36 26 21 17 15 12 8 6 3 1 359 354 352 346 340 331 319 313 307 302 299 295 293 291 289 288 286 285 282 275 268 260 250 246 253 254 248 267 268 247 229 230
137 139 141 145 148 148 146 142 142 135 120 111 109 107 108 97 84 64 45 40 31 23 22 19 16 14 10 9 7 4 1 357 356 350 344 338 326 323 320 313 311 305 296 293 293 291 289 289 287 283 284 279 263 256 261 254 242 250 269 269 253 238
140 144 148 152 152 148 148 142 134 124 111 103 98 97 97 79 62 46 32 30 27 22 20 17 18 18 14 13 7 3 1 357 356 351 344 340 335 334 333 327 322 315 306 300 296 292 290 292 292 287 290 290 277 273 270 253 242 245 248 255 266 259
143 145 148 150 148 142 139 133 123 110 96 91 86 80 72 56 41 26 21 23 23 19 16 14 15 15 12 11 6 2 1 357 355 351 346 343 343 344 341 334 325 319 317 312 304 299 298 300 297 288 287 290 286 286 280 252 241 247 245 247 258 265
139 140 141 142 139 134 132 125 110 91 78 77 76 71 63 53 39 27 25 24 20 15 12 11 11 12 9 6 3 2 1 359 357 353 350 349 346 344 341 336 330 326 325 322 315 311 306 306 307 301 291 284 282 285 285 270 253 246 240 243 250 259
131 134 135 135 133 128 123 108 90 79 75 74 73 69 62 48 37 33 31 24 18 15 12 9 10 11 6 3 3 3 2 0 357 354 353 351 345 342 340 337 336 335 333 328 323 321 316 312 315 314 308 296 287 282 279 278 277 264 248 246 247 250
128 130 129 128 125 118 107 92 82 80 76 71 67 60 54 44 37 36 31 22 18 15 11 9 10 8 2 5 10 10 8 4 1 360 357 354 348 343 345 345 344 341 338 335 333 332 327 321 319 319 315 306 295 290 286 283 283 280 269 260 255 254
126 125 123 118 112 101 93 86 81 78 70 64 60 54 49 42 39 36 27 23 20 14 9 6 7 6 3 9 17 14 11 10 8 5 2 359 357 352 351 352 351 348 343 339 341 345 342 336 333 328 322 313 306 302 297 290 283 278 272 265 261 262
125 123 116 105 98 90 85 80 75 71 66 62 58 54 49 47 47 42 33 26 19 17 17 11 8 10 9 13 15 13 13 11 8 8 8 5 4 5 4 2 0 357 352 344 342 350 352 348 346 341 336 331 327 322 313 303 290 280 275 270 265 265
123 117 106 97 95 90 83 75 68 64 62 64 65 61 59 59 51 38 27 17 13 25 28 18 14 15 16 15 14 13 13 11 11 14 13 10 11 14 13 10 11 8 2 356 349 353 357 355 352 349 346 344 343 342 338 329 311 294 288 281 272 264
115 107 101 98 94 83 76 71 66 64 68 74 76 72 66 59 41 21 15 16 23 31 26 19 19 20 19 18 17 16 16 17 21 23 20 18 21 25 23 19 20 17 11 7 3 0 0 359 359 357 353 352 351 347 347 346 335 320 308 296 285 274